Weather History for Pinedale, WY

Change the Weather History Date:

Monday, January 14, 2013

  Actual Average (KBPI) Record (KBPI)
Temperature  
Mean Temperature -16 °F 11 °F  
Max Temperature -2 °F 26 °F 47 °F (2012)
Min Temperature -31 °F -4 °F -31 °F (2013)
Degree Days  
Heating Degree Days 82 54  
Month to date heating degree days 756  
Since 1 July heating degree days 5195  
Cooling Degree Days 0 0  
Month to date cooling degree days 0  
Year to date cooling degree days 0  
Moisture  
Dew Point -23 °F    
Average Humidity 74    
Maximum Humidity 84    
Minimum Humidity 60    
Precipitation  
Precipitation 0.00 in 0.01 in 0.32 in (1988)
Month to date precipitation 0.15  
Year to date precipitation 0.15  
Sea Level Pressure  
Sea Level Pressure 29.99 in    
Wind  
Wind Speed 5 mph (East)    
Max Wind Speed 9 mph    
Max Gust Speed -    
Visibility 10 miles    
Events Snow    
T = Trace of Precipitation, MM = Missing Value Source: NWS Daily Summary

Daily Weather History Graph

Daily Weather History Graph

Search for Another Location

Airport:

Trip Planner

Search our weather history database for the weather conditions in past years. The results will help you decide how hot, cold, wet, or windy it might be!

Date:

Astronomy

Jan. 14, 2013 Rise Set
Actual Time 7:47 AM MST 5:09 PM MST
Civil Twilight 7:16 AM MST 5:41 PM MST
Nautical Twilight 6:41 AM MST 6:16 PM MST
Astronomical Twilight 6:07 AM MST 6:50 PM MST
Moon 9:17 AM MST (1/14) 9:05 PM MST (1/14)
Length of Visible Light 10h 25m
Length of Day
9h 22m
Waxing Crescent, 12% of the Moon is Illuminated
Jan 14
Waxing Crescent
Jan 18
First Quarter
Jan 26
Full
Feb 3
Last Quarter
Feb 10
New

Hourly Weather History & Observations

Time (MST) Temp. Windchill Dew Point Humidity Pressure Visibility Wind Dir Wind Speed Gust Speed Precip Events Conditions
12:15 AM -27.4 °F -45.9 °F -34.6 °F 69% 29.96 in 10.0 mi West 6.9 mph - N/A   Clear
12:35 AM -27.4 °F -49.0 °F -34.6 °F 69% 29.97 in 10.0 mi WNW 9.2 mph - N/A   Clear
12:55 AM -29.2 °F -48.1 °F -36.4 °F 68% 29.96 in 10.0 mi West 6.9 mph - N/A   Clear
1:15 AM -31.0 °F -48.4 °F -36.4 °F 75% 29.95 in 10.0 mi West 5.8 mph - N/A   Clear
1:55 AM -29.2 °F -48.1 °F -36.4 °F 68% 29.97 in 10.0 mi WNW 6.9 mph - N/A   Clear
2:15 AM -29.2 °F -46.2 °F -34.6 °F 75% 29.97 in 10.0 mi WNW 5.8 mph - N/A   Scattered Clouds
2:35 AM -29.2 °F -49.7 °F -34.6 °F 75% 29.96 in 10.0 mi WNW 8.1 mph - N/A   Overcast
3:15 AM -25.6 °F -43.8 °F -32.8 °F 69% 29.96 in 10.0 mi WNW 6.9 mph - N/A   Mostly Cloudy
3:35 AM -23.8 °F -41.6 °F -31.0 °F 69% 29.96 in 10.0 mi WNW 6.9 mph - N/A   Overcast
3:55 AM -23.8 °F -44.5 °F -29.2 °F 76% 29.96 in 10.0 mi WNW 9.2 mph - N/A   Overcast
4:15 AM -22.0 °F - -27.4 °F 76% 29.95 in 5.0 mi Calm Calm - N/A Snow Light Snow
4:35 AM -20.2 °F - -27.4 °F 69% 29.95 in 5.0 mi Calm Calm - N/A Snow Light Snow
4:55 AM -20.2 °F - -25.6 °F 76% 29.95 in 10.0 mi Calm Calm - N/A   Overcast
5:15 AM -20.2 °F - -25.6 °F 76% 29.95 in 10.0 mi Calm Calm - N/A   Overcast
5:35 AM -23.8 °F -35.0 °F -29.2 °F 76% 29.95 in 10.0 mi East 3.5 mph - N/A   Overcast
5:55 AM -23.8 °F -41.6 °F -31.0 °F 69% 29.95 in 10.0 mi East 6.9 mph - N/A   Mostly Cloudy
6:15 AM -25.6 °F -41.9 °F -31.0 °F 76% 29.97 in 10.0 mi East 5.8 mph - N/A   Overcast
6:35 AM -25.6 °F -46.8 °F -32.8 °F 69% 29.97 in 10.0 mi East 9.2 mph - N/A   Overcast
6:55 AM -25.6 °F -46.8 °F -32.8 °F 69% 29.98 in 10.0 mi East 9.2 mph - N/A   Overcast
7:15 AM -25.6 °F -45.4 °F -32.8 °F 69% 29.98 in 10.0 mi East 8.1 mph - N/A   Mostly Cloudy
7:35 AM -25.6 °F -43.8 °F -31.0 °F 76% 29.99 in 10.0 mi ESE 6.9 mph - N/A   Scattered Clouds
7:55 AM -23.8 °F -37.7 °F -27.4 °F 83% 30.00 in 10.0 mi SE 4.6 mph - N/A   Clear
8:15 AM -29.2 °F -44.0 °F -36.4 °F 68% 30.00 in 10.0 mi WSW 4.6 mph - N/A   Scattered Clouds
8:35 AM -25.6 °F -37.1 °F -32.8 °F 69% 30.01 in 7.0 mi North 3.5 mph - N/A   Scattered Clouds
8:55 AM -27.4 °F - -34.6 °F 69% 30.01 in 10.0 mi Calm Calm - N/A   Clear
9:15 AM -23.8 °F -35.0 °F -31.0 °F 69% 30.03 in 10.0 mi WSW 3.5 mph - N/A   Clear
9:35 AM -22.0 °F -35.6 °F -29.2 °F 69% 30.03 in 10.0 mi WSW 4.6 mph - N/A   Clear
9:55 AM -18.4 °F -28.9 °F -25.6 °F 70% 30.03 in 10.0 mi West 3.5 mph - N/A   Clear
10:15 AM -20.2 °F -30.9 °F -25.6 °F 76% 30.04 in 10.0 mi WNW 3.5 mph - N/A   Clear
10:35 AM -16.6 °F -26.8 °F -23.8 °F 70% 30.05 in 10.0 mi NW 3.5 mph - N/A   Clear
10:55 AM -14.8 °F - -22.0 °F 70% 30.04 in 10.0 mi Calm Calm - N/A   Clear
11:15 AM -14.8 °F - -20.2 °F 77% 30.04 in 7.0 mi Calm Calm - N/A   Clear
11:35 AM -13.0 °F - -18.4 °F 77% 30.03 in 10.0 mi Calm Calm - N/A   Clear
11:55 AM -11.2 °F - -16.6 °F 77% 30.02 in 10.0 mi Calm Calm - N/A   Clear
12:15 PM -9.4 °F - -14.8 °F 77% 30.01 in 10.0 mi Calm Calm - N/A   Clear
12:35 PM -9.4 °F - -14.8 °F 77% 30.01 in 10.0 mi Calm Calm - N/A   Clear
12:55 PM -7.6 °F - -13.0 °F 77% 29.99 in 10.0 mi Calm Calm - N/A   Clear
1:15 PM -5.8 °F - -9.4 °F 84% 29.98 in 10.0 mi Calm Calm - N/A   Clear
1:35 PM -5.8 °F - -13.0 °F 71% 29.98 in 10.0 mi Calm Calm - N/A   Clear
1:55 PM -5.8 °F - -13.0 °F 71% 29.98 in 10.0 mi Calm Calm - N/A   Clear
2:15 PM -5.8 °F - -14.8 °F 65% 29.98 in 10.0 mi Calm Calm - N/A   Clear
2:35 PM -2.2 °F - -13.0 °F 60% 29.99 in 10.0 mi Calm Calm - N/A   Clear
3:15 PM -4.0 °F - -14.8 °F 60% 30.00 in 10.0 mi Calm Calm - N/A   Clear
3:35 PM -5.8 °F - -14.8 °F 65% 30.00 in 10.0 mi Calm Calm - N/A   Clear
3:55 PM -7.6 °F - -14.8 °F 71% 30.00 in 10.0 mi Calm Calm - N/A   Scattered Clouds
4:15 PM -5.8 °F -16.7 °F -14.8 °F 65% 30.00 in 10.0 mi East 4.6 mph - N/A   Scattered Clouds
4:35 PM -7.6 °F -22.1 °F -16.6 °F 65% 30.00 in 10.0 mi East 6.9 mph - N/A   Mostly Cloudy
4:55 PM -9.4 °F -24.3 °F -16.6 °F 71% 29.99 in 10.0 mi ESE 6.9 mph - N/A   Clear
5:15 PM -9.4 °F -18.6 °F -16.6 °F 71% 29.99 in 10.0 mi SE 3.5 mph - N/A   Clear
5:35 PM -9.4 °F - -16.6 °F 71% 30.01 in 10.0 mi Calm Calm - N/A   Scattered Clouds
5:55 PM -9.4 °F - -16.6 °F 71% 30.01 in 10.0 mi Calm Calm - N/A   Clear
6:15 PM -9.4 °F - -14.8 °F 77% 30.01 in 10.0 mi Calm Calm - N/A   Scattered Clouds
6:35 PM -9.4 °F - -16.6 °F 71% 30.00 in 10.0 mi Calm Calm - N/A   Scattered Clouds
6:55 PM -9.4 °F -18.6 °F -16.6 °F 71% 29.99 in 10.0 mi East 3.5 mph - N/A   Clear
7:15 PM -11.2 °F -20.6 °F -16.6 °F 77% 29.98 in 10.0 mi SE 3.5 mph - N/A   Clear
7:35 PM -13.0 °F -22.7 °F -16.6 °F 84% 29.98 in 10.0 mi East 3.5 mph - N/A   Scattered Clouds
7:55 PM -13.0 °F -30.0 °F -18.4 °F 77% 29.97 in 10.0 mi ESE 8.1 mph - N/A   Mostly Cloudy
8:15 PM -13.0 °F -28.6 °F -16.6 °F 84% 29.98 in 10.0 mi ESE 6.9 mph - N/A   Scattered Clouds
8:35 PM -14.8 °F -29.1 °F -18.4 °F 84% 29.98 in 10.0 mi East 5.8 mph - N/A   Clear
8:55 PM -14.8 °F -24.8 °F -18.4 °F 84% 29.98 in 10.0 mi East 3.5 mph - N/A   Clear
9:15 PM -14.8 °F -24.8 °F -18.4 °F 84% 30.00 in 10.0 mi East 3.5 mph - N/A   Clear
9:35 PM -14.8 °F -29.1 °F -18.4 °F 84% 30.00 in 10.0 mi ESE 5.8 mph - N/A   Clear
9:55 PM -14.8 °F -24.8 °F -18.4 °F 84% 30.00 in 10.0 mi NE 3.5 mph - N/A   Clear
10:15 PM -16.6 °F -29.3 °F -22.0 °F 76% 30.01 in 10.0 mi East 4.6 mph - N/A   Clear
10:35 PM -14.8 °F -29.1 °F -18.4 °F 84% 30.00 in 10.0 mi ESE 5.8 mph - N/A   Clear
10:55 PM -14.8 °F -24.8 °F -20.2 °F 77% 30.00 in 10.0 mi East 3.5 mph - N/A   Mostly Cloudy
11:15 PM -16.6 °F -26.8 °F -22.0 °F 76% 30.01 in 10.0 mi ESE 3.5 mph - N/A   Mostly Cloudy
11:35 PM -14.8 °F - -18.4 °F 84% 30.01 in 10.0 mi Calm Calm - N/A   Scattered Clouds
11:55 PM -14.8 °F -24.8 °F -18.4 °F 84% 30.03 in 10.0 mi SE 3.5 mph - N/A   Mostly Cloudy